Time,TemperatureF,DewpointF,PressureIn,WindDirection,WindDirectionDegrees,WindSpeedMPH,WindSpeedGustMPH,Humidity,HourlyPrecipIn,Conditions,Clouds,dailyrainin,SoftwareType,DateUTC
2013-03-09 00:01:00,33.0,33.0,30.16,ESE,115,1.0,1.0,100,-99.99,,,-99.99,,2013-03-09 08:01:00,
2013-03-09 00:10:00,32.0,32.0,30.17,East,100,0.0,1.0,100,-99.99,,,-99.99,,2013-03-09 08:10:00,
2013-03-09 01:01:00,32.0,32.0,30.17,East,100,0.0,1.0,100,-99.99,,,-99.99,,2013-03-09 09:01:00,
2013-03-09 01:10:00,32.0,31.0,30.19,NE,55,0.0,1.0,96,-99.99,,,-99.99,,2013-03-09 09:10:00,
2013-03-09 02:01:00,32.0,31.0,30.19,NE,55,0.0,1.0,96,-99.99,,,-99.99,,2013-03-09 10:01:00,
2013-03-09 02:10:00,31.0,30.0,30.21,East,95,1.0,1.0,96,-99.99,,,-99.99,,2013-03-09 10:10:00,
2013-03-09 03:01:00,31.0,30.0,30.21,East,95,1.0,1.0,96,-99.99,,,-99.99,,2013-03-09 11:01:00,
2013-03-09 03:10:00,31.0,30.0,30.22,North,-999,0.0,0.0,96,-99.99,,,-99.99,,2013-03-09 11:10:00,
2013-03-09 04:01:00,31.0,30.0,30.22,North,-999,0.0,0.0,96,-99.99,,,-99.99,,2013-03-09 12:01:00,
2013-03-09 04:10:00,31.0,30.0,30.24,North,-999,0.0,0.0,96,-99.99,,,-99.99,,2013-03-09 12:10:00,
2013-03-09 05:02:00,31.0,30.0,30.24,North,-999,0.0,0.0,96,-99.99,,,-99.99,,2013-03-09 13:02:00,
2013-03-09 05:10:00,30.0,30.0,30.26,North,-999,0.0,0.0,100,-99.99,,,-99.99,,2013-03-09 13:10:00,
2013-03-09 06:01:00,30.0,30.0,30.26,North,-999,0.0,0.0,100,-99.99,,,-99.99,,2013-03-09 14:01:00,
2013-03-09 06:10:00,29.0,29.0,30.28,North,-999,0.0,0.0,100,-99.99,,,-99.99,,2013-03-09 14:10:00,
2013-03-09 07:01:00,29.0,29.0,30.28,North,-999,0.0,0.0,100,-99.99,,,-99.99,,2013-03-09 15:01:00,
2013-03-09 07:10:00,29.0,29.0,30.31,NE,40,1.0,2.0,100,-99.99,,,-99.99,,2013-03-09 15:10:00,
2013-03-09 08:01:00,29.0,29.0,30.31,NE,40,1.0,2.0,100,-99.99,,,-99.99,,2013-03-09 16:01:00,
2013-03-09 08:10:00,37.0,37.0,30.32,NE,45,1.0,3.0,100,-99.99,,,-99.99,,2013-03-09 16:10:00,
2013-03-09 09:01:00,37.0,37.0,30.32,NE,45,1.0,3.0,100,-99.99,,,-99.99,,2013-03-09 17:01:00,
2013-03-09 09:10:00,43.0,38.0,30.33,East,95,7.0,10.0,82,-99.99,,,-99.99,,2013-03-09 17:10:00,
2013-03-09 10:01:00,43.0,38.0,30.33,East,95,7.0,10.0,82,-99.99,,,-99.99,,2013-03-09 18:01:00,
2013-03-09 10:10:00,45.0,37.0,30.35,SE,130,1.0,5.0,73,-99.99,,,-99.99,,2013-03-09 18:10:00,
2013-03-09 11:01:00,45.0,37.0,30.35,SE,130,1.0,5.0,73,-99.99,,,-99.99,,2013-03-09 19:01:00,
2013-03-09 11:10:00,51.0,40.0,30.37,SSW,200,3.0,5.0,65,-99.99,,,-99.99,,2013-03-09 19:10:00,
2013-03-09 12:01:00,51.0,40.0,30.37,SSW,200,3.0,5.0,65,-99.99,,,-99.99,,2013-03-09 20:01:00,
2013-03-09 12:10:00,52.0,41.0,30.37,SW,230,2.0,5.0,65,-99.99,,,-99.99,,2013-03-09 20:10:00,
2013-03-09 13:01:00,52.0,41.0,30.37,SW,230,2.0,5.0,65,-99.99,,,-99.99,,2013-03-09 21:01:00,
2013-03-09 13:10:00,53.0,43.0,30.37,SW,215,2.0,6.0,68,-99.99,,,-99.99,,2013-03-09 21:10:00,
2013-03-09 14:01:00,53.0,43.0,30.37,SW,215,2.0,6.0,68,-99.99,,,-99.99,,2013-03-09 22:01:00,
2013-03-09 14:10:00,52.0,41.0,30.37,SW,220,2.0,3.0,65,-99.99,,,-99.99,,2013-03-09 22:10:00,
2013-03-09 15:01:00,52.0,41.0,30.37,SW,220,2.0,3.0,65,-99.99,,,-99.99,,2013-03-09 23:01:00,
2013-03-09 15:10:00,52.0,42.0,30.37,WSW,255,1.0,3.0,68,-99.99,,,-99.99,,2013-03-09 23:10:00,
2013-03-09 16:01:00,52.0,42.0,30.37,WSW,255,1.0,3.0,68,-99.99,,,-99.99,,2013-03-10 00:01:00,
2013-03-09 16:10:00,50.0,38.0,30.37,SSE,165,1.0,3.0,63,-99.99,,,-99.99,,2013-03-10 00:10:00,
2013-03-09 17:01:00,50.0,38.0,30.37,SSE,165,1.0,3.0,63,-99.99,,,-99.99,,2013-03-10 01:01:00,
2013-03-09 17:10:00,49.0,40.0,30.38,West,265,1.0,2.0,70,-99.99,,,-99.99,,2013-03-10 01:10:00,
2013-03-09 18:01:00,49.0,40.0,30.38,West,265,1.0,2.0,70,-99.99,,,-99.99,,2013-03-10 02:01:00,
2013-03-09 18:10:00,46.0,39.0,30.38,North,-999,0.0,0.0,76,-99.99,,,-99.99,,2013-03-10 02:10:00,
2013-03-09 19:01:00,46.0,39.0,30.38,North,-999,0.0,0.0,76,-99.99,,,-99.99,,2013-03-10 03:01:00,
2013-03-09 19:10:00,42.0,38.0,30.40,NE,35,1.0,1.0,85,-99.99,,,-99.99,,2013-03-10 03:10:00,
2013-03-09 20:01:00,42.0,38.0,30.40,NE,35,1.0,1.0,85,-99.99,,,-99.99,,2013-03-10 04:01:00,
2013-03-09 20:10:00,38.0,36.0,30.41,ESE,105,1.0,1.0,92,-99.99,,,-99.99,,2013-03-10 04:10:00,
2013-03-09 21:01:00,38.0,36.0,30.41,ESE,105,1.0,1.0,92,-99.99,,,-99.99,,2013-03-10 05:01:00,
2013-03-09 21:10:00,38.0,37.0,30.41,ESE,115,1.0,1.0,96,-99.99,,,-99.99,,2013-03-10 05:10:00,
2013-03-09 22:01:00,38.0,37.0,30.41,ESE,115,1.0,1.0,96,-99.99,,,-99.99,,2013-03-10 06:01:00,
2013-03-09 22:10:00,38.0,36.0,30.41,NE,40,1.0,3.0,92,-99.99,,,-99.99,,2013-03-10 06:10:00,
2013-03-09 23:01:00,38.0,36.0,30.41,NE,40,1.0,3.0,92,-99.99,,,-99.99,,2013-03-10 07:01:00,
2013-03-09 23:10:00,37.0,36.0,30.41,East,95,1.0,3.0,96,-99.99,,,-99.99,,2013-03-10 07:10:00,